Location: Unspecified
(0.0000°N, 0.0000°E)
Time: 07:30:11
(UTC+00:00)

SR - Pass Details

Date: 19 December 2018
Orbit: 582 x 874 km, 66.7° (Epoch: 16 June)

Event Time Altitude Azimuth Distance (km) Brightness Sun altitude
Rises 00:45:12 0° 234° (SW) 3,449 - -63.8°
Reaches altitude 10° 00:48:44 10° 255° (WSW) 2,518 - -63.4°
Maximum altitude 00:52:05 16° 290° (WNW) 2,138 - -63.0°
Drops below altitude 10° 00:55:25 10° 325° (NW) 2,493 - -62.6°
Sets 00:58:55 0° 347° (NNW) 3,396 - -62.2°
